Wind_Speed
1 0 1 2 2 2 2 3 3 4 4 5 5 6 6 7 8 9 9 9 10 10 10 11 12 14 14 15 15 15 16 16 17 17 16 17 17 17 17 17 18 18 18
1 1 2 3 3 3 3 4 4 5 5 6 5 5 6 7 8 9 9 9 10 10 10 11 11 12 13 14 15 16 16 17 18 19 18 18 18 18 18 18 18 19 19
2 3 3 3 4 4 5 5 5 5 6 7 6 6 6 7 8 9 9 9 10 10 11 11 11 12 12 14 15 16 17 17 18 19 20 19 19 19 19 19 19 20 20
3 3 3 4 4 5 6 6 7 6 7 7 7 6 7 7 8 8 9 9 10 10 10 10 11 12 13 14 15 16 18 19 19 20 21 20 20 19 19 19 20 20 21
3 4 4 5 6 6 7 7 7 7 7 7 6 7 8 8 8 9 10 11 11 11 12 11 11 13 14 14 15 17 18 19 20 21 21 21 21 21 20 20 20 21 21
4 4 5 6 6 7 7 7 7 8 8 8 8 8 9 9 9 10 11 12 12 13 13 13 13 14 15 15 16 17 19 19 20 21 21 21 22 23 22 22 21 21 21
5 5 6 7 7 8 8 8 8 9 9 9 9 10 10 10 11 12 13 13 13 13 13 14 14 15 15 16 17 17 18 19 19 20 20 20 21 22 23 22 22 21 21
6 6 7 8 8 8 8 9 9 10 10 11 11 11 12 12 13 14 14 15 15 15 14 14 15 16 16 17 17 17 18 18 18 20 20 21 22 23 23 23 22 22 21
7 8 8 8 8 9 9 10 10 11 12 12 13 13 14 14 15 15 16 16 16 17 16 15 16 16 17 17 18 18 18 19 20 21 22 23 23 23 24 24 23 22 22
9 10 9 9 10 11 11 12 12 13 13 14 15 15 15 16 16 17 17 18 17 17 18 18 18 18 18 19 19 19 19 19 20 21 22 23 22 23 23 25 25 24 25
10 10 10 11 12 12 13 14 14 15 15 15 16 16 16 17 18 18 18 18 18 18 19 19 19 19 19 21 21 20 20 21 21 22 22 23 22 22 22 23 25 25 26
11 11 12 13 13 14 14 15 16 16 17 17 17 17 17 18 19 19 19 20 20 20 20 21 20 21 21 21 21 21 22 22 22 23 23 23 24 24 24 23 24 25 25
12 13 13 14 14 15 16 16 16 17 17 18 18 18 19 19 19 19 20 20 20 21 22 22 22 23 23 22 22 22 23 23 23 24 24 24 25 25 25 25 26 25 26
13 14 15 15 16 16 17 17 18 18 18 19 19 20 20 20 20 20 21 21 21 22 22 22 22 23 22 22 23 23 24 24 24 25 25 25 25 25 25 25 26 25 26
15 16 17 17 18 18 18 19 19 19 20 20 20 21 21 21 21 21 21 22 22 23 22 22 23 23 23 23 23 24 24 24 24 24 24 24 25 25 26 25 26 26 26
16 17 18 19 19 19 20 20 20 21 21 21 21 21 21 21 21 22 22 22 23 23 23 24 24 23 23 23 24 24 24 24 24 25 25 24 24 25 25 26 26 26 27
17 18 19 20 20 20 21 21 21 22 22 22 22 22 22 22 22 23 23 23 22 23 23 24 24 24 24 24 24 24 25 25 25 25 25 25 25 25 25 25 26 26 27
19 19 20 21 21 21 21 22 22 22 22 22 22 23 23 23 23 22 22 22 23 23 24 24 25 25 24 24 24 24 25 25 25 26 26 25 25 25 26 26 26 26 26
20 20 21 22 22 22 22 22 22 23 23 23 23 24 24 24 23 23 23 24 24 25 25 25 25 26 25 25 25 25 26 26 26 26 26 26 26 26 26 27 27 27 27
20 21 22 23 23 23 23 23 24 24 24 24 24 24 24 24 24 24 25 25 25 25 26 25 25 25 25 25 25 25 26 26 26 26 26 26 26 27 27 27 27 27 27
22 23 23 23 24 24 24 24 25 24 25 25 25 25 25 25 25 26 27 26 26 26 26 26 26 26 26 26 26 26 26 26 25 25 25 25 26 26 26 26 27 27 27
23 23 23 24 24 24 25 25 25 25 24 25 25 25 26 26 27 28 28 27 26 26 26 26 26 26 26 26 26 25 26 26 26 26 26 26 26 26 26 25 25 26 26
23 23 24 24 25 25 25 25 25 26 26 26 26 27 27 27 28 28 27 27 26 26 26 26 26 26 26 26 26 25 26 26 26 26 26 26 26 26 26 25 25 25 25
24 25 25 25 25 25 25 26 27 27 27 27 27 27 27 28 28 27 27 26 26 26 26 26 26 26 26 26 26 26 25 25 25 25 26 26 26 26 27 26 26 26 26
25 25 25 26 26 27 27 28 28 28 28 28 28 28 28 28 28 28 27 27 26 26 26 26 26 26 26 26 25 25 24 25 25 25 25 26 26 26 25 26 26 26 26
26 26 27 27 28 28 29 29 29 29 29 29 29 28 28 28 28 27 27 27 26 26 26 26 26 26 26 25 26 25 25 25 25 26 26 26 26 25 25 25 26 26 26
Wind_Direction
51 7 292 300 304 308 317 324 324 320 306 304 300 287 270 271 270 271 271 270 270 272 269 264 260 257 250 247 246 247 246 246 247 248 250 251 251 252 252 253 252 251 250
359 338 322 320 311 315 320 322 312 310 314 314 304 298 288 277 273 274 276 274 273 270 267 268 265 260 251 248 248 250 248 246 248 249 251 251 252 253 253 254 252 251 251
5 347 333 320 315 323 319 320 317 309 307 308 306 300 295 289 279 278 282 282 278 273 269 268 266 262 256 253 252 253 251 248 249 250 251 251 253 253 253 253 253 253 253
348 332 324 317 319 324 323 318 315 314 311 312 304 300 296 299 292 289 289 285 283 280 276 273 270 265 263 260 258 256 252 250 250 251 250 252 253 253 254 255 254 254 254
339 339 332 324 319 327 327 323 321 318 320 322 313 303 298 300 302 297 291 288 285 283 280 277 272 268 267 266 265 260 257 254 251 250 252 254 255 255 257 257 256 257 257
323 322 320 322 325 326 324 321 317 318 319 315 309 308 301 296 297 296 295 291 289 287 282 281 277 274 273 270 269 265 262 257 254 253 252 254 254 255 257 258 255 256 256
306 307 316 320 321 321 322 320 316 314 312 310 305 301 298 295 295 295 295 297 295 290 285 282 278 278 277 274 273 269 265 258 257 254 254 254 255 255 256 257 256 255 253
306 308 313 315 316 319 319 313 311 311 308 306 303 300 297 294 295 295 294 294 293 291 287 283 280 280 280 276 276 273 268 262 260 256 257 257 257 257 259 259 256 256 255
307 309 308 310 312 313 313 311 308 306 305 304 302 300 297 296 296 295 292 290 291 289 286 286 283 283 282 278 275 272 268 264 262 260 260 261 259 259 260 259 257 256 255
316 314 312 310 310 309 307 307 306 304 302 301 299 297 297 295 293 292 293 291 290 288 286 285 283 283 282 281 279 274 269 268 265 263 263 262 261 262 260 257 256 256 255
320 319 316 310 306 305 305 304 303 302 303 301 298 296 294 294 293 293 292 291 290 288 286 285 282 283 280 280 279 274 270 269 268 267 266 264 264 263 261 260 257 256 255
322 321 319 316 311 307 306 304 302 302 302 301 299 296 293 292 292 291 289 288 288 287 286 285 283 283 281 280 279 276 273 271 271 270 268 268 266 265 265 265 262 259 258
321 318 317 314 312 309 308 306 303 302 301 300 299 297 296 294 293 292 291 289 288 289 289 287 284 285 283 281 281 278 275 272 273 272 270 271 270 268 267 265 264 263 258
314 314 315 314 312 310 310 308 306 303 301 301 299 297 297 295 293 292 291 290 288 288 289 287 284 286 284 281 280 278 277 275 274 273 271 272 271 270 269 266 267 264 261
315 313 314 312 311 311 311 308 305 303 301 301 300 297 296 295 293 292 291 290 290 290 290 290 287 285 284 283 281 281 279 277 275 274 274 274 274 272 270 268 266 265 264
312 313 313 313 312 310 309 306 304 303 302 301 300 298 295 294 293 293 293 291 290 290 289 289 288 285 284 283 283 282 279 277 275 275 275 274 275 274 273 270 268 267 265
313 311 311 311 310 309 308 306 305 303 301 300 299 298 297 296 295 295 293 291 291 290 289 288 288 287 284 284 282 280 277 275 274 275 274 275 275 276 275 273 270 267 266
316 313 312 311 309 308 307 307 306 303 301 300 299 299 299 298 297 296 294 291 291 291 290 290 290 289 287 284 284 282 279 276 275 274 275 274 274 275 274 273 271 270 267
314 316 315 314 313 312 310 308 306 304 301 299 298 297 296 295 296 295 292 291 290 291 291 291 290 290 289 285 283 282 280 278 277 275 273 272 272 273 274 274 274 272 270
312 314 316 315 314 312 310 308 306 304 302 300 299 298 297 296 294 294 293 291 289 290 290 290 291 290 289 287 285 283 280 280 278 276 275 272 272 273 274 274 273 271 269
312 314 315 315 314 311 311 309 306 305 302 300 300 298 297 297 295 294 293 291 289 288 289 290 291 291 289 288 284 281 280 279 278 277 275 274 274 275 275 274 272 271 268
313 315 316 315 314 312 310 310 309 307 304 302 301 299 297 296 296 295 293 291 289 288 288 288 288 288 288 287 284 282 280 278 277 276 277 276 275 275 275 274 272 272 270
314 315 314 314 314 313 312 312 311 309 306 303 301 298 297 296 297 296 293 291 289 287 287 287 287 287 287 287 285 282 280 278 278 278 277 277 275 274 274 273 272 271 270
313 313 314 314 315 314 313 313 312 310 308 305 302 300 298 297 296 296 293 291 289 288 288 287 287 287 287 288 285 283 280 279 280 280 280 278 275 274 273 273 271 271 271
314 314 312 313 313 313 312 310 310 309 308 305 303 301 300 298 296 294 293 293 291 289 287 286 286 285 285 286 284 283 281 281 281 281 280 279 277 275 274 273 272 271 271
312 313 312 312 311 312 311 311 310 310 308 306 303 301 300 299 297 295 293 292 290 289 288 286 285 285 285 284 282 281 282 283 282 281 280 279 279 277 275 274 273 272 271
Height
5871 5870 5870 5869 5868 5868 5867 5866 5866 5865 5864 5863 5863 5862 5862 5862 5861 5860 5860 5859 5859 5859 5858 5857 5856 5856 5857 5858 5860 5861 5862 5863 5864 5865 5866 5867 5868 5868 5869 5870 5871 5871 5872
5871 5870 5869 5869 5868 5867 5866 5865 5865 5864 5863 5862 5861 5861 5860 5860 5859 5858 5858 5857 5857 5856 5855 5854 5854 5853 5854 5855 5856 5858 5859 5860 5860 5862 5863 5863 5864 5865 5865 5866 5866 5867 5868
5870 5869 5869 5868 5867 5866 5865 5864 5863 5863 5862 5861 5860 5859 5858 5858 5857 5856 5856 5855 5854 5853 5853 5852 5852 5852 5852 5852 5853 5854 5855 5856 5857 5858 5859 5859 5860 5861 5861 5862 5862 5863 5864
5869 5868 5867 5867 5866 5865 5864 5863 5862 5861 5860 5859 5858 5857 5857 5856 5855 5854 5854 5853 5852 5851 5851 5850 5850 5850 5850 5850 5850 5851 5851 5852 5853 5854 5855 5855 5856 5856 5857 5858 5858 5858 5859
5869 5868 5867 5866 5866 5864 5863 5862 5861 5860 5859 5858 5856 5856 5855 5855 5854 5853 5852 5851 5850 5849 5849 5848 5847 5847 5847 5847 5847 5847 5847 5848 5848 5849 5850 5851 5851 5852 5853 5853 5854 5854 5853
5868 5867 5866 5866 5865 5863 5862 5861 5860 5859 5858 5857 5855 5854 5853 5852 5852 5851 5850 5849 5848 5847 5846 5845 5845 5844 5844 5843 5842 5841 5841 5842 5843 5844 5845 5846 5846 5847 5848 5848 5849 5849 5848
5868 5867 5866 5864 5863 5862 5861 5860 5858 5857 5856 5855 5854 5853 5851 5850 5849 5849 5847 5846 5845 5844 5843 5842 5841 5841 5840 5839 5838 5836 5836 5837 5839 5840 5840 5841 5842 5843 5843 5843 5844 5844 5844
5867 5865 5864 5863 5862 5861 5859 5858 5857 5856 5855 5853 5852 5851 5850 5849 5847 5846 5845 5843 5842 5841 5840 5839 5838 5837 5836 5836 5835 5833 5833 5834 5835 5835 5836 5836 5837 5837 5837 5838 5838 5839 5839
5865 5864 5862 5861 5860 5859 5858 5857 5855 5854 5852 5851 5850 5848 5847 5846 5844 5843 5841 5840 5839 5837 5836 5835 5834 5833 5832 5832 5831 5830 5830 5830 5830 5830 5831 5831 5831 5832 5832 5832 5832 5834 5835
5863 5862 5860 5859 5858 5857 5855 5854 5852 5851 5849 5848 5846 5845 5844 5842 5841 5839 5838 5836 5835 5833 5832 5831 5830 5829 5828 5827 5826 5826 5825 5825 5825 5825 5826 5826 5826 5826 5826 5827 5827 5828 5829
5862 5860 5858 5857 5855 5854 5852 5850 5849 5847 5845 5844 5842 5841 5839 5838 5836 5835 5834 5832 5830 5829 5828 5827 5826 5825 5824 5823 5822 5821 5821 5821 5820 5820 5820 5820 5820 5820 5820 5821 5821 5822 5822
5860 5858 5856 5854 5852 5851 5849 5847 5845 5843 5841 5840 5838 5836 5835 5833 5832 5830 5829 5827 5826 5824 5823 5821 5821 5820 5818 5817 5817 5816 5816 5815 5815 5815 5814 5814 5814 5814 5814 5815 5815 5815 5816
5857 5855 5854 5851 5849 5847 5845 5843 5841 5839 5837 5835 5833 5832 5830 5828 5827 5825 5823 5822 5820 5819 5818 5816 5815 5814 5813 5812 5811 5810 5810 5809 5809 5809 5808 5808 5808 5808 5808 5808 5808 5808 5809
5855 5853 5850 5848 5846 5843 5841 5839 5837 5835 5833 5831 5829 5827 5825 5823 5821 5819 5818 5816 5815 5814 5812 5810 5809 5808 5807 5806 5805 5804 5803 5803 5803 5802 5802 5802 5801 5801 5801 5801 5802 5802 5802
5851 5849 5847 5845 5842 5839 5837 5835 5832 5830 5828 5826 5824 5822 5819 5817 5816 5814 5812 5810 5809 5808 5806 5805 5803 5802 5801 5799 5798 5798 5797 5797 5796 5796 5796 5795 5795 5795 5795 5795 5795 5795 5795
5848 5846 5843 5840 5838 5835 5832 5830 5828 5825 5823 5821 5818 5816 5814 5812 5810 5808 5806 5804 5803 5801 5800 5799 5797 5796 5794 5793 5792 5791 5790 5790 5789 5789 5789 5788 5788 5788 5788 5788 5788 5788 5788
5844 5842 5839 5836 5834 5831 5828 5825 5823 5820 5818 5815 5812 5810 5808 5806 5804 5802 5800 5798 5797 5795 5794 5792 5790 5789 5787 5786 5785 5784 5783 5783 5782 5782 5782 5781 5781 5780 5780 5780 5780 5780 5780
5840 5837 5835 5832 5829 5826 5824 5821 5818 5815 5812 5810 5807 5804 5802 5800 5798 5796 5794 5792 5790 5789 5787 5785 5783 5782 5780 5779 5778 5777 5776 5776 5775 5775 5774 5774 5774 5773 5773 5773 5772 5772 5772
5836 5833 5830 5827 5824 5821 5818 5815 5812 5809 5807 5804 5801 5799 5796 5794 5792 5790 5788 5786 5784 5782 5780 5778 5776 5775 5773 5772 5771 5770 5769 5768 5768 5767 5767 5766 5766 5766 5765 5765 5764 5764 5764
5832 5828 5825 5822 5819 5816 5813 5810 5807 5804 5801 5798 5795 5793 5790 5788 5786 5783 5781 5779 5777 5775 5773 5771 5769 5768 5766 5765 5764 5763 5761 5761 5760 5760 5759 5758 5758 5758 5757 5757 5756 5756 5756
5827 5824 5820 5817 5814 5811 5807 5804 5801 5798 5795 5792 5789 5786 5784 5781 5779 5777 5774 5772 5770 5768 5767 5765 5763 5761 5759 5758 5756 5755 5754 5753 5752 5752 5751 5750 5750 5750 5749 5749 5748 5748 5748
5822 5819 5815 5812 5809 5805 5802 5798 5795 5792 5789 5786 5783 5780 5777 5775 5772 5770 5767 5765 5763 5761 5760 5758 5756 5754 5752 5751 5749 5748 5747 5746 5745 5745 5743 5742 5742 5741 5741 5740 5740 5740 5739
5817 5814 5810 5807 5803 5799 5796 5793 5789 5786 5782 5779 5776 5773 5770 5768 5765 5762 5760 5757 5756 5754 5752 5751 5749 5747 5745 5743 5742 5740 5739 5738 5737 5736 5735 5734 5733 5733 5732 5732 5732 5731 5731
5812 5808 5805 5801 5798 5794 5791 5787 5783 5779 5776 5772 5769 5766 5763 5760 5757 5755 5752 5750 5748 5746 5744 5743 5741 5739 5737 5736 5734 5732 5731 5730 5729 5728 5727 5726 5725 5724 5724 5723 5723 5723 5723
5806 5803 5799 5796 5792 5788 5784 5781 5777 5773 5769 5765 5762 5758 5755 5752 5749 5747 5744 5742 5740 5738 5736 5734 5733 5731 5730 5728 5727 5725 5724 5723 5722 5721 5720 5719 5717 5716 5716 5715 5715 5715 5714
5801 5797 5794 5790 5786 5782 5778 5774 5770 5766 5762 5758 5754 5751 5747 5744 5741 5739 5736 5734 5732 5730 5728 5727 5725 5723 5722 5720 5719 5718 5716 5715 5714 5713 5712 5711 5709 5708 5708 5707 5707 5706 5706